Skip Page Navigation
NASA JPL Caltech
NASA Logo - Jet Propulsion Laboratory + View the NASA Portal
+ Center for Near-Earth Object Studies
JPL Home Earth Solar System Stars & Galaxies Technology
JPL Solar System Dynamics
BODIES ORBITS EPHEMERIDES TOOLS PHYSICAL DATA DISCOVERY FAQ SITE MAP
IMPORTANT: The SSD Announcement email list is now available. Major changes are coming in the near future, including possible hostname and/or URL changes. To be notified of such changes, subscribe to this email list.

Please visit this page for more details.


JPL Small-Body Database Browser
Search: [ help ]  
214034 (2004 EE12)
Classification: Main-belt Asteroid          SPK-ID: 2214034
Ephemeris | Orbit Diagram | Orbital Elements | Mission Design | Physical Parameters | Discovery Circumstances | Close-Approach Data ]

[ show orbit diagram ]
Orbital Elements at Epoch 2458600.5 (2019-Apr-27.0) TDB
Reference: JPL 12 (heliocentric ecliptic J2000)
 Element Value Uncertainty (1-sigma)   Units 
e .1899544414707752 4.8653e-08  
a 2.746339554494382 2.4009e-08 au
q 2.224660158331304 1.2813e-07 au
i 13.17308257144291 8.1208e-06 deg
node 163.6366310948883 2.1066e-05 deg
peri 76.81903942849323 2.9589e-05 deg
M 58.58794306529882 2.1886e-05 deg
tp 2458329.957483833913
(2018-Jul-30.45748383)
9.9743e-05 TDB
period 1662.377969324508
4.55
2.1799e-05
5.968e-08
d
yr
n .2165572490991821 2.8397e-09 deg/d
Q 3.26801895065746 2.8569e-08 au
  Orbit Determination Parameters
   # obs. used (total)      246  
   data-arc span      5726 days (15.68 yr)  
   first obs. used      2004-02-18  
   last obs. used      2019-10-23  
   planetary ephem.      DE431  
   SB-pert. ephem.      SB431-N16  
   condition code      0  
   norm. resid. RMS      .57311  
   source      ORB  
   producer      Otto Matic  
   solution date      2019-Nov-07 23:52:43  

Additional Information
 Earth MOID = 1.25761 au 
 Jupiter MOID = 1.8839 au 
 T_jup = 3.284 
[ show covariance matrix ]

Ephemeris | Orbit Diagram | Orbital Elements | Mission Design | Physical Parameters | Discovery Circumstances | Close-Approach Data ]

Physical Parameter Table
Parameter Symbol Value Units Sigma Reference Notes
absolute magnitude H 16.2   n/a MPO446195  

214034 (2004 EE12)          Discovered 2004-Mar-11 by NEAT at Palomar
Reference: 20090509/Numbers.arcLast Updated: 2009-05-11

[ show close-approach data ]
Ephemeris | Orbit Diagram | Orbital Elements | Mission Design | Physical Parameters | Discovery Circumstances | Close-Approach Data ]
ABOUT SSD CREDITS/AWARDS PRIVACY/COPYRIGHT GLOSSARY LINKS
FirstGov 2019-Dec-16 10:34 UT
(server date/time)  
NASA Home Page
Site Manager:   Ryan S. Park
Webmaster  Alan B. Chamberlin